Tracking 19247 objects as of 22-Sep-2018
HD Live streaming from Space Station
objects crossing your sky now

FENGYUN 1C DEB

Track FENGYUN 1C DEB now!
10-day predictions


NORAD ID: 32357
Int'l Code: 1999-025CZA
Perigee: 667.1 km
Apogee: 1,515.5 km
Inclination: 98.9 °
Period: 106.9 minutes
Semi major axis: 7462 km
RCS: 0.0112 m2 (small)
Launch date: May 10, 1999
Source: People's Republic of China (PRC)
Launch site: Taiyaun Space Center, China (TSC)

Note: This is SATELLITE DEBRIS
aabbcc
Your satellite tracking list
Your tracking list is empty




NASA's NSSDC Master Catalog

Two Line Element Set (TLE):
1 32357U 99025CZA 18259.57528045  .00000656  00000-0  42305-3 0  9990
2 32357  98.9025 161.8642 0568458 153.6131 329.4700 13.46764946551162
Source of the keplerian elements: AFSPC